Location: Moscow
(38.8570°N, 84.2291°W)
Time: 17:09:12
(UTC+00:00)

DX 1 - Visible Passes

Search period start: 14 March 2026 00:00
Search period end: 24 March 2026 00:00
Orbit: 595 x 603 km, 98.4° (Epoch: 14 March)

Date Brightness Start Highest point End Pass type
(mag) Time Alt. Az. Time Alt. Az. Time Alt. Az.
19 Mar ? 09:17:59 10° NNW 09:18:02 10° NNW 09:18:02 10° NNW visible
22 Mar ? 08:14:11 10° NNE 08:14:21 11° NNE 08:14:21 11° NNE visible
23 Mar ? 08:24:52 10° NNE 08:25:21 13° NNE 08:25:21 13° NNE visible
